Pottstown, PA

4:28 PM EST on December 12, 2019 (GMT -0500)
Pottstown Limerick

Weather History for KPTW - November, 2019

Change the Weather History Date:

Thursday, November 14, 2019

  Actual Average (KRDG) Record (KRDG)
Temperature  
Mean Temperature 30 °F -  
Max Temperature 41 °F 50 °F 74 °F (1955)
Min Temperature 19 °F 32 °F 16 °F (1986)
Degree Days  
Heating Degree Days 35    
Moisture  
Dew Point 19 °F    
Average Humidity 61    
Maximum Humidity 81    
Minimum Humidity 40    
Precipitation  
Precipitation 0.00 in - - ()
Sea Level Pressure  
Sea Level Pressure 30.38 in    
Wind  
Wind Speed 2 mph (SSW)    
Max Wind Speed 8 mph    
Max Gust Speed -    
Visibility 10 miles    
Events      
Averages and records for this station are not official NWS values.
T = Trace of Precipitation, MM = Missing Value Source: NWS Daily Summary

Daily Weather History Graph

Daily Weather History Graph

Search for Another Location

Airport or City:

Astronomy

Nov. 14, 2019 Rise Set
Actual Time 6:46 AM EST 4:46 PM EST
Civil Twilight 6:17 AM EST 5:15 PM EST
Nautical Twilight 5:44 AM EST 5:48 PM EST
Astronomical Twilight 5:12 AM EST 6:20 PM EST
Moon 6:30 PM EST (11/14) 8:39 AM EST (11/14)
Length of Visible Light 10h 57m
Length of Day
9h 59m
Waning Gibbous, 95% of the Moon is Illuminated
Nov 14
Waning Gibbous
Nov 19
Last Quarter
Nov 26
New
Dec 4
First Quarter
Dec 12
Full

Hourly Weather History & Observations

Time (EST) Temp. Windchill Dew Point Humidity Pressure Visibility Wind Dir Wind Speed Gust Speed Precip Events Conditions
12:54 AM 24.1 °F - 14.0 °F 65% 30.44 in 10.0 mi Calm Calm - N/A   Clear
1:54 AM 24.1 °F - 14.0 °F 65% 30.43 in 10.0 mi Calm Calm - N/A   Clear
3:54 AM 21.0 °F - 14.0 °F 74% 30.42 in 10.0 mi Calm Calm - N/A   Clear
4:54 AM 19.9 °F - 15.1 °F 81% 30.41 in 10.0 mi Calm Calm - N/A   Clear
5:54 AM 19.9 °F - 12.9 °F 74% 30.44 in 10.0 mi Calm Calm - N/A   Clear
6:54 AM 19.0 °F - 12.9 °F 77% 30.44 in 9.0 mi Calm Calm - N/A   Partly Cloudy
7:54 AM 24.1 °F - 16.0 °F 71% 30.46 in 8.0 mi Calm Calm - N/A   Partly Cloudy
8:54 AM 28.0 °F - 15.1 °F 58% 30.45 in 10.0 mi Calm Calm - N/A   Clear
9:54 AM 30.0 °F 25.2 °F 17.1 °F 59% 30.45 in 9.0 mi South 4.6 mph - N/A   Clear
10:54 AM 33.1 °F 28.7 °F 19.0 °F 56% 30.42 in 9.0 mi SSW 4.6 mph - N/A   Clear
11:54 AM 37.0 °F 31.6 °F 21.0 °F 52% 30.39 in 10.0 mi SSW 6.9 mph - N/A   Clear
12:54 PM 39.0 °F 33.4 °F 19.9 °F 46% 30.36 in 10.0 mi SSW 8.1 mph - N/A   Clear
1:54 PM 41.0 °F 36.4 °F 19.9 °F 43% 30.34 in 10.0 mi SSW 6.9 mph - N/A   Clear
2:54 PM 41.0 °F 39.0 °F 18.0 °F 40% 30.33 in 10.0 mi SSW 3.5 mph - N/A   Clear
3:54 PM 39.9 °F 36.7 °F 19.9 °F 45% 30.34 in 10.0 mi Variable 4.6 mph - N/A   Clear
4:54 PM 39.0 °F 36.8 °F 19.9 °F 46% 30.33 in 10.0 mi SSW 3.5 mph - N/A   Clear
5:54 PM 37.0 °F 33.3 °F 19.0 °F 48% 30.33 in 10.0 mi SSW 4.6 mph - N/A   Clear
6:54 PM 33.1 °F - 21.9 °F 64% 30.33 in 10.0 mi Calm Calm - N/A   Clear
7:54 PM 34.0 °F - 21.9 °F 61% 30.33 in 10.0 mi Calm Calm - N/A   Clear
8:54 PM 33.1 °F - 23.0 °F 66% 30.32 in 10.0 mi Calm Calm - N/A   Clear
9:54 PM 30.9 °F - 24.1 °F 76% 30.33 in 10.0 mi Calm Calm - N/A   Clear
10:54 PM 34.0 °F 29.8 °F 24.1 °F 67% 30.33 in 10.0 mi SSW 4.6 mph - N/A   Clear
11:54 PM 28.9 °F - 23.0 °F 78% 30.31 in 10.0 mi Calm Calm - N/A   Clear